"Pseudo-MPEC" for P11Fq1T

Created 2023 Jun 4 16:22:07 UT using Find_Orb

Click here for an explanation of pseudo-MPECs

 
 Astrometry: 
     P11Fq1T* C2023 05 15!XPp4/33pOule7T'rH$ZLZ'jAMeD)xuS2^f(q7Ws2#^JW@v4hTHoF51
     P11Fq1T  C2023 05 154O_/#Astrometry$.,]_hAq8=(eO`redacted;$S=DPQf*y[s)@\F51
     P11Fq1T  C2023 05 15,yDl!'QDHW;:NwZX]^1!(;,H`*MC$cO#.AY5L#8^rR2o2j-JV.,KF51
     P11Fq1T  C2023 05 15nUK.9RQ=ZuJ!T_N1wclickf)*xRpC_ASGhere'$p6*$O\0GxjBHlF51
     P11Fq1T  C2023 05 15Pbta9:DCfor8P:5j5h7pGa-Qf6gP]f@%hf/*:pDTnexplanationF51

Station data:
(F51) Pan-STARRS 1, Haleakala  (N20.707234 W156.255910)  US/Hawaii.
   Observers J. Bulger, T. Lowe, A. Schultz, M. Willman. Measurers K.
   Chambers, S. Chastel, T. de Boer, L. Denneau, J. Fairlamb, H. Flewelling,
   M. Huber, C.-C. Lin, E. Magnier, Y. Ramanjooloo, R. Wainscoat, R. Weryk.
   1.8-m Ritchey-Chrétien + CCD.

Orbital elements:  P11Fq1T
   Perihelion 2023 Feb 11.53051 +/- 14.7 TT = 12:43:55 (JD 2459987.03051)
Epoch 2023 May 16.0 TT = JDT 2460080.5   Earth MOID: 0.0041      AutoNEOCP
M  88.56769052 +/- 14               (J2000 ecliptic)
n   0.94755718 +/- 0.00733          Peri.  279.36695 +/- 37
a   1.02659488 +/- 0.00529          Node   201.24669 +/- 37
e   0.2200323 +/- 0.13              Incl.    3.24526 +/- 3.4
P   1.04/379.92d           H 26.29  G  0.15   U  9.5
q 0.80071081 +/- 0.131    Q 1.25247894 +/- 0.139
From 5 observations 2023 May 15 (2.7 hr); mean residual 0".09
Residuals in arcseconds: 
230515 F51  .04-  .01+    230515 F51  .02-  .00     230515 F51  .11+  .15-    
230515 F51  .06+  .01-    230515 F51  .11-  .15+    

Ephemerides (geocentric):
Date (UTC) HH   RA             Dec           delta  r     elong  mag " sig PA
---- --------  ------------   ------------  ------ ------ -----  --- --------
2023 06 04 16  14 51 41.109   +03 22 46.96  .14750 1.1337 141.6 23.9 6583  20
2023 06 04 17  14 51 41.387   +03 21 57.96  .14768 1.1338 141.6 23.9 6597  20
2023 06 04 18  14 51 41.670   +03 21 08.99  .14787 1.1339 141.5 23.9 6611  20
2023 06 04 19  14 51 41.958   +03 20 20.07  .14805 1.1340 141.5 23.9 6625  20
2023 06 04 20  14 51 42.251   +03 19 31.18  .14823 1.1342 141.5 23.9 6639  20
2023 06 04 21  14 51 42.549   +03 18 42.33  .14842 1.1343 141.5 23.9 6653  20
2023 06 04 22  14 51 42.852   +03 17 53.52  .14860 1.1344 141.4 23.9 6667  20
2023 06 04 23  14 51 43.160   +03 17 04.75  .14878 1.1345 141.4 23.9 6681  20
2023 06 05 00  14 51 43.474   +03 16 16.02  .14897 1.1347 141.4 23.9 6695  20
2023 06 05 01  14 51 43.792   +03 15 27.32  .14915 1.1348 141.4 23.9 6709  20
2023 06 05 02  14 51 44.116   +03 14 38.67  .14933 1.1349 141.3 23.9 6723  20
2023 06 05 03  14 51 44.444   +03 13 50.05  .14952 1.1350 141.3 23.9 6736  20
2023 06 05 04  14 51 44.777   +03 13 01.46  .14970 1.1352 141.3 23.9 6750  20
2023 06 05 05  14 51 45.116   +03 12 12.92  .14989 1.1353 141.3 23.9 6764  20
2023 06 05 06  14 51 45.459   +03 11 24.41  .15007 1.1354 141.2 23.9 6778  20
2023 06 05 07  14 51 45.808   +03 10 35.94  .15025 1.1355 141.2 23.9 6792  20
2023 06 05 08  14 51 46.161   +03 09 47.51  .15044 1.1357 141.2 23.9 6806  20
2023 06 05 09  14 51 46.519   +03 08 59.11  .15062 1.1358 141.2 23.9 6820  20
2023 06 05 10  14 51 46.883   +03 08 10.75  .15081 1.1359 141.1 23.9 6833  20
2023 06 05 11  14 51 47.251   +03 07 22.43  .15099 1.1360 141.1 23.9 6847  20
2023 06 05 12  14 51 47.624   +03 06 34.14  .15117 1.1361 141.1 23.9 6861  20
2023 06 05 13  14 51 48.002   +03 05 45.89  .15136 1.1363 141.1 23.9 6875  20
2023 06 05 14  14 51 48.385   +03 04 57.68  .15154 1.1364 141.0 23.9 6888  20
2023 06 05 15  14 51 48.773   +03 04 09.50  .15173 1.1365 141.0 23.9 6902  20
2023 06 05 16  14 51 49.166   +03 03 21.36  .15191 1.1366 141.0 23.9 6916  20
2023 06 05 17  14 51 49.564   +03 02 33.25  .15210 1.1368 141.0 23.9 6929  20
2023 06 05 18  14 51 49.966   +03 01 45.18  .15228 1.1369 141.0 23.9 6943  20
2023 06 05 19  14 51 50.374   +03 00 57.14  .15247 1.1370 140.9 24.0 6957  20
2023 06 05 20  14 51 50.786   +03 00 09.14  .15265 1.1371 140.9 24.0 6970  20
2023 06 05 21  14 51 51.203   +02 59 21.18  .15284 1.1372 140.9 24.0 6984  20
2023 06 05 22  14 51 51.625   +02 58 33.25  .15302 1.1374 140.9 24.0 6997  19
2023 06 05 23  14 51 52.052   +02 57 45.36  .15321 1.1375 140.8 24.0 7011  19
2023 06 06 00  14 51 52.484   +02 56 57.50  .15339 1.1376 140.8 24.0 7024  19
2023 06 06 01  14 51 52.920   +02 56 09.68  .15358 1.1377 140.8 24.0 7038  19
2023 06 06 02  14 51 53.362   +02 55 21.89  .15376 1.1379 140.8 24.0 7051  19
2023 06 06 03  14 51 53.808   +02 54 34.13  .15395 1.1380 140.7 24.0 7065  19
2023 06 06 04  14 51 54.259   +02 53 46.41  .15413 1.1381 140.7 24.0 7078  19
2023 06 06 05  14 51 54.715   +02 52 58.73  .15432 1.1382 140.7 24.0 7092  19
2023 06 06 06  14 51 55.175   +02 52 11.08  .15450 1.1383 140.7 24.0 7105  19
2023 06 06 07  14 51 55.640   +02 51 23.46  .15469 1.1385 140.6 24.0 7119  19
2023 06 06 08  14 51 56.110   +02 50 35.88  .15488 1.1386 140.6 24.0 7132  19
2023 06 06 09  14 51 56.585   +02 49 48.33  .15506 1.1387 140.6 24.0 7146  19
2023 06 06 10  14 51 57.065   +02 49 00.81  .15525 1.1388 140.6 24.0 7159  19
2023 06 06 11  14 51 57.549   +02 48 13.33  .15543 1.1390 140.5 24.0 7172  19
2023 06 06 12  14 51 58.038   +02 47 25.88  .15562 1.1391 140.5 24.0 7186  19
2023 06 06 13  14 51 58.532   +02 46 38.47  .15580 1.1392 140.5 24.0 7199  19
2023 06 06 14  14 51 59.031   +02 45 51.08  .15599 1.1393 140.5 24.0 7212  19
2023 06 06 15  14 51 59.534   +02 45 03.73  .15618 1.1394 140.4 24.0 7226  19